Puyallup, WA
on Thursday, February 7, 2013

Thursday
Previous Day Next Day
Daily Summary
 ActualAverage (KSEA)Record (KSEA)
Temperature
Mean Temperature °F 43°F  
Max Temperature 48°F 49°F 66°F (1963)
Min Temperature 28°F 37°F 20°F (1989)
Degree Days
Heating Degree Days 27 22  
Month to date heating degree days 154  
Since 1 July heating degree days 2803  
Cooling Degree Days 0 0  
Month to date cooling degree days 0  
Year to date cooling degree days 0  
Moisture
Dew Point 34°F   
Average Humidity 80    
Maximum Humidity 100    
Minimum Humidity 54    
Precipitation
Precipitation 0.06 in 0.14 in 2.58 in (1955)
Month to date precipitation 0.94  
Year to date precipitation 6.51  
Snow
Snow 0.00 in in T in (1994)
Month to date snowfall  
Since 1 July snowfall  
Snow Depth in   
Wind
Wind Speed 4 mph   
Max Wind Speed 16 mph   
Max Gust Speed 25 mph   
Visibility 10 miles   
Events Rain   

Key: T is trace of precipitation, MM is missing value
Source: NWS Daily Summary
Time(PST)TemperatureDew PointHumidity Pressure Visibility Wind DirectionWind SpeedGust SpeedPrecipitationEvents Conditions
12:15 AM 48.2°F 35.6°F 62% 29.79 in 10.0 miles South 9.2 mph 16.1 mph N/A Rain Light Rain
12:35 AM 48.2°F 35.6°F 62% 29.80 in 10.0 miles South 10.4 mph 19.6 mph N/A   Partly Cloudy
12:55 AM 48.2°F 37.4°F 66% 29.83 in 10.0 miles West 12.7 mph 19.6 mph N/A Rain Light Rain
1:15 AM 41.0°F 39.2°F 93% 29.87 in 5.0 miles WSW 16.1 mph 25.3 mph 0.04 in Rain Light Rain
1:35 AM 41.0°F 39.2°F 93% 29.86 in 9.0 miles SSW 9.2 mph 21.9 mph 0.06 in Rain Light Rain
1:55 AM 41.0°F 39.2°F 93% 29.87 in 10.0 miles SSW 8.1 mph - 0.06 in   Partly Cloudy
2:15 AM 41.0°F 39.2°F 93% 29.88 in 10.0 miles SSW 6.9 mph - N/A   Partly Cloudy
2:35 AM 41.0°F 37.4°F 87% 29.89 in 10.0 miles SSW 5.8 mph - N/A   Scattered Clouds
2:55 AM 41.0°F 37.4°F 87% 29.90 in 10.0 miles Calm Calm - N/A   Partly Cloudy
3:15 AM 41.0°F 37.4°F 87% 29.91 in 10.0 miles South 8.1 mph - N/A   Mostly Cloudy
3:35 AM 41.0°F 35.6°F 81% 29.91 in 10.0 miles SSW 3.5 mph - N/A   Scattered Clouds
3:55 AM 41.0°F 37.4°F 87% 29.92 in 10.0 miles South 9.2 mph - N/A   Mostly Cloudy
4:15 AM 41.0°F 37.4°F 87% 29.93 in 10.0 miles South 6.9 mph - N/A   Mostly Cloudy
4:35 AM 41.0°F 35.6°F 81% 29.94 in 10.0 miles Calm Calm - N/A   Scattered Clouds
4:55 AM 39.2°F 35.6°F 87% 29.94 in 10.0 miles SW 3.5 mph - N/A   Scattered Clouds
5:15 AM 39.2°F 35.6°F 87% 29.95 in 10.0 miles Calm Calm - N/A   Mostly Cloudy
5:35 AM 39.2°F 35.6°F 87% 29.95 in 10.0 miles SW 3.5 mph - N/A   Mostly Cloudy
5:55 AM 39.2°F 35.6°F 87% 29.96 in 10.0 miles Calm Calm - N/A   Scattered Clouds
6:15 AM 39.2°F 35.6°F 87% 29.96 in 10.0 miles Calm Calm - N/A   Scattered Clouds
6:35 AM 39.2°F 35.6°F 87% 29.97 in 10.0 miles Calm Calm - N/A   Mostly Cloudy
7:15 AM 39.2°F 35.6°F 87% 29.98 in 10.0 miles Calm Calm - N/A   Overcast
7:35 AM 39.2°F 35.6°F 87% 29.98 in 10.0 miles Calm Calm - N/A   Mostly Cloudy
7:55 AM 39.2°F 35.6°F 87% 29.99 in 10.0 miles Calm Calm - N/A   Mostly Cloudy
8:15 AM 39.2°F 37.4°F 93% 29.99 in 10.0 miles Calm Calm - N/A   Overcast
8:35 AM 39.2°F 35.6°F 87% 30.00 in 10.0 miles Calm Calm - N/A   Mostly Cloudy
8:55 AM 39.2°F 35.6°F 87% 30.01 in 10.0 miles Calm Calm - N/A   Scattered Clouds
9:15 AM 39.2°F 35.6°F 87% 30.01 in 10.0 miles Calm Calm - N/A   Clear
9:35 AM 41.0°F 35.6°F 81% 30.01 in 10.0 miles Calm Calm - N/A   Clear
9:55 AM 44.6°F 35.6°F 71% 30.01 in 10.0 miles SSW 3.5 mph - N/A   Clear
10:15 AM 44.6°F 35.6°F 71% 30.02 in 10.0 miles Calm Calm - N/A   Clear
10:35 AM 44.6°F 33.8°F 66% 30.02 in 10.0 miles Calm Calm - N/A   Clear
10:55 AM 46.4°F 32.0°F 57% 30.03 in 10.0 miles Calm Calm - N/A   Clear
11:15 AM 44.6°F 32.0°F 61% 30.03 in 10.0 miles Calm Calm - N/A   Partly Cloudy
11:35 AM 46.4°F 32.0°F 57% 30.03 in 10.0 miles Calm Calm - N/A   Mostly Cloudy
11:55 AM 46.4°F 32.0°F 57% 30.02 in 10.0 miles Calm Calm - N/A   Mostly Cloudy
12:15 PM 44.6°F 32.0°F 61% 30.02 in 10.0 miles Calm Calm - N/A   Mostly Cloudy
12:35 PM 46.4°F 32.0°F 57% 30.02 in 10.0 miles Calm Calm - N/A   Mostly Cloudy
12:55 PM 44.6°F 32.0°F 61% 30.02 in 10.0 miles WSW 10.4 mph - N/A   Scattered Clouds
1:15 PM 46.4°F 32.0°F 57% 30.02 in 10.0 miles Calm Calm - N/A   Partly Cloudy
1:35 PM 46.4°F 33.8°F 62% 30.02 in 10.0 miles Calm Calm - N/A   Scattered Clouds
1:55 PM 46.4°F 32.0°F 57% 30.02 in 10.0 miles Calm Calm - N/A   Scattered Clouds
2:15 PM 46.4°F 32.0°F 57% 30.02 in 10.0 miles Calm Calm - N/A   Partly Cloudy
2:35 PM 48.2°F 32.0°F 54% 30.02 in 10.0 miles Calm Calm - N/A   Clear
2:55 PM 48.2°F 32.0°F 54% 30.02 in 10.0 miles Calm Calm - N/A   Clear
3:35 PM 48.2°F 32.0°F 54% 30.03 in 10.0 miles Calm Calm - N/A   Partly Cloudy
3:55 PM 48.2°F 32.0°F 54% 30.03 in 10.0 miles NNW 3.5 mph - N/A   Clear
4:15 PM 48.2°F 32.0°F 54% 30.03 in 10.0 miles Calm Calm - N/A   Partly Cloudy
4:35 PM 46.4°F 32.0°F 57% 30.04 in 10.0 miles Calm Calm - N/A   Partly Cloudy
4:55 PM 46.4°F 32.0°F 57% 30.05 in 10.0 miles Calm Calm - N/A   Clear
5:15 PM 44.6°F 32.0°F 61% 30.06 in 10.0 miles Calm Calm - N/A   Clear
5:35 PM 39.2°F 32.0°F 75% 30.07 in 10.0 miles Calm Calm - N/A   Clear
5:55 PM 37.4°F 32.0°F 81% 30.07 in 10.0 miles Calm Calm - N/A   Clear
6:15 PM 37.4°F 32.0°F 81% 30.07 in 10.0 miles Calm Calm - N/A   Clear
6:35 PM 33.8°F 32.0°F 93% 30.08 in 10.0 miles Calm Calm - N/A   Clear
6:55 PM 32.0°F 32.0°F 100% 30.08 in 10.0 miles Calm Calm - N/A   Clear
7:15 PM 33.8°F 32.0°F 93% 30.09 in 10.0 miles Calm Calm - N/A   Clear
7:35 PM 32.0°F 32.0°F 100% 30.09 in 10.0 miles Calm Calm - N/A   Clear
7:55 PM 32.0°F 32.0°F 100% 30.10 in 10.0 miles Calm Calm - N/A   Clear
8:15 PM 32.0°F 32.0°F 100% 30.11 in 10.0 miles Calm Calm - N/A   Clear
8:35 PM 32.0°F 32.0°F 100% 30.11 in 10.0 miles Calm Calm - N/A   Clear
8:55 PM 30.2°F 30.2°F 100% 30.12 in 10.0 miles Calm Calm - N/A   Clear
9:15 PM 30.2°F 30.2°F 100% 30.13 in 10.0 miles Calm Calm - N/A   Clear
9:35 PM 32.0°F 32.0°F 100% 30.14 in 10.0 miles Calm Calm - N/A   Clear
9:55 PM 30.2°F 30.2°F 100% 30.14 in 10.0 miles Calm Calm - N/A   Clear
10:15 PM 28.4°F 28.4°F 100% 30.15 in 10.0 miles Calm Calm - N/A   Clear
10:35 PM 28.4°F 28.4°F 100% 30.16 in 10.0 miles Calm Calm - N/A   Clear
10:55 PM 30.2°F 30.2°F 100% 30.16 in 10.0 miles Calm Calm - N/A   Clear
11:15 PM 30.2°F 30.2°F 100% 30.17 in 10.0 miles Calm Calm - N/A   Clear
11:35 PM 28.4°F 28.4°F 100% 30.17 in 10.0 miles Calm Calm - N/A   Clear
11:55 PM 28.4°F 28.4°F 100% 30.18 in 10.0 miles Calm Calm - N/A   Clear
Moon Phase
Feb. 07 Feb. 10 Feb. 17 Feb. 25 Mar. 04
Sunrise:07:25 AM (PST) Moon Rise:05:15 AM (PST)2/7
Sunset:05:21 PM (PST) Moon Set:02:47 PM (PST)2/7

Copyright © 2014 The Weather Underground, Inc.